Time,TemperatureF,DewpointF,PressureIn,WindDirection,WindDirectionDegrees,WindSpeedMPH,WindSpeedGustMPH,Humidity,HourlyPrecipIn,Conditions,Clouds,dailyrainin,SoftwareType,DateUTC
2013-01-06 00:00:00,39.1,36.0,30.30,SSE,151,0.0,-999.0,88,-99.99,,,0.00,weatherlink.com 1.10,2013-01-06 06:00:00,
2013-01-06 00:15:00,38.5,35.0,30.30,SSE,151,0.0,-999.0,88,-99.99,,,0.00,weatherlink.com 1.10,2013-01-06 06:15:00,
2013-01-06 00:30:00,38.2,35.0,30.29,SSE,151,0.0,-999.0,88,-99.99,,,0.00,weatherlink.com 1.10,2013-01-06 06:30:00,
2013-01-06 00:45:00,38.1,35.0,30.29,SSE,151,0.0,-999.0,89,-99.99,,,0.00,weatherlink.com 1.10,2013-01-06 06:45:00,
2013-01-06 01:00:00,38.0,35.0,30.30,SSE,151,0.0,-999.0,89,-99.99,,,0.00,weatherlink.com 1.10,2013-01-06 07:00:00,
2013-01-06 01:15:00,37.7,35.0,30.30,SSE,151,0.0,-999.0,89,-99.99,,,0.00,weatherlink.com 1.10,2013-01-06 07:15:00,
2013-01-06 01:30:00,37.4,35.0,30.30,SSE,151,0.0,-999.0,90,-99.99,,,0.00,weatherlink.com 1.10,2013-01-06 07:30:00,
2013-01-06 01:45:00,37.0,34.0,30.31,SSE,151,0.0,-999.0,90,-99.99,,,0.00,weatherlink.com 1.10,2013-01-06 07:45:00,
2013-01-06 02:00:00,37.3,35.0,30.30,SSE,151,0.0,-999.0,90,-99.99,,,0.00,weatherlink.com 1.10,2013-01-06 08:00:00,
2013-01-06 02:15:00,37.3,35.0,30.30,SSE,150,0.0,-999.0,91,-99.99,,,0.00,weatherlink.com 1.10,2013-01-06 08:15:00,
2013-01-06 02:30:00,36.8,35.0,30.30,SSE,151,0.0,-999.0,91,-99.99,,,0.00,weatherlink.com 1.10,2013-01-06 08:30:00,
2013-01-06 02:45:00,36.7,34.0,30.30,SSE,151,0.0,-999.0,91,-99.99,,,0.00,weatherlink.com 1.10,2013-01-06 08:45:00,
2013-01-06 03:00:00,35.7,33.0,30.30,SSE,151,0.0,-999.0,91,-99.99,,,0.00,weatherlink.com 1.10,2013-01-06 09:00:00,
2013-01-06 03:15:00,35.1,33.0,30.30,SSE,151,0.0,-999.0,91,-99.99,,,0.00,weatherlink.com 1.10,2013-01-06 09:15:00,
2013-01-06 03:30:00,35.7,33.0,30.31,SSE,150,0.0,-999.0,91,-99.99,,,0.00,weatherlink.com 1.10,2013-01-06 09:30:00,
2013-01-06 03:45:00,36.2,34.0,30.31,SSE,151,0.0,-999.0,92,-99.99,,,0.00,weatherlink.com 1.10,2013-01-06 09:45:00,
2013-01-06 04:00:00,37.1,35.0,30.31,SW,227,1.0,-999.0,92,-99.99,,,0.00,weatherlink.com 1.10,2013-01-06 10:00:00,
2013-01-06 04:15:00,37.4,35.0,30.31,West,277,0.0,-999.0,92,-99.99,,,0.00,weatherlink.com 1.10,2013-01-06 10:15:00,
2013-01-06 04:30:00,37.0,35.0,30.31,West,269,0.0,-999.0,92,-99.99,,,0.00,weatherlink.com 1.10,2013-01-06 10:30:00,
2013-01-06 04:45:00,36.6,35.0,30.31,West,269,0.0,-999.0,92,-99.99,,,0.00,weatherlink.com 1.10,2013-01-06 10:45:00,
2013-01-06 05:00:00,36.6,35.0,30.31,West,269,0.0,-999.0,92,-99.99,,,0.00,weatherlink.com 1.10,2013-01-06 11:00:00,
2013-01-06 05:15:00,36.4,34.0,30.31,West,272,0.0,-999.0,92,-99.99,,,0.00,weatherlink.com 1.10,2013-01-06 11:15:00,
2013-01-06 05:30:00,36.5,34.0,30.32,West,272,1.0,-999.0,91,-99.99,,,0.00,weatherlink.com 1.10,2013-01-06 11:30:00,
2013-01-06 05:45:00,36.7,34.0,30.32,West,272,0.0,-999.0,90,-99.99,,,0.00,weatherlink.com 1.10,2013-01-06 11:45:00,
2013-01-06 06:00:00,36.5,33.0,30.33,West,273,0.0,-999.0,88,-99.99,,,0.00,weatherlink.com 1.10,2013-01-06 12:00:00,
2013-01-06 06:15:00,36.0,33.0,30.33,West,273,0.0,-999.0,88,-99.99,,,0.00,weatherlink.com 1.10,2013-01-06 12:15:00,
2013-01-06 06:30:00,36.0,33.0,30.34,West,273,0.0,-999.0,87,-99.99,,,0.00,weatherlink.com 1.10,2013-01-06 12:30:00,
2013-01-06 06:45:00,35.9,32.0,30.35,West,273,0.0,-999.0,85,-99.99,,,0.00,weatherlink.com 1.10,2013-01-06 12:45:00,
2013-01-06 07:00:00,35.8,31.0,30.35,SW,230,0.0,-999.0,83,-99.99,,,0.00,weatherlink.com 1.10,2013-01-06 13:00:00,
2013-01-06 07:15:00,35.5,31.0,30.36,West,273,3.0,-999.0,83,-99.99,,,0.00,weatherlink.com 1.10,2013-01-06 13:15:00,
2013-01-06 07:30:00,35.4,30.0,30.36,WNW,290,0.0,-999.0,81,-99.99,,,0.00,weatherlink.com 1.10,2013-01-06 13:30:00,
2013-01-06 07:46:00,35.5,29.0,30.36,West,272,0.0,-999.0,78,-99.99,,,0.00,weatherlink.com 1.10,2013-01-06 13:46:00,
2013-01-06 08:01:00,35.4,29.0,30.37,SSE,167,0.0,-999.0,77,-99.99,,,0.00,weatherlink.com 1.10,2013-01-06 14:01:00,
2013-01-06 08:16:00,35.9,29.0,30.38,WSW,252,0.0,-999.0,75,-99.99,,,0.00,weatherlink.com 1.10,2013-01-06 14:16:00,
2013-01-06 08:31:00,37.1,29.0,30.38,WNW,290,0.0,-999.0,72,-99.99,,,0.00,weatherlink.com 1.10,2013-01-06 14:31:00,
2013-01-06 08:46:00,38.2,29.0,30.39,South,180,0.0,-999.0,69,-99.99,,,0.00,weatherlink.com 1.10,2013-01-06 14:46:00,
2013-01-06 09:01:00,39.1,29.0,30.39,West,275,0.0,-999.0,67,-99.99,,,0.00,weatherlink.com 1.10,2013-01-06 15:01:00,
2013-01-06 09:16:00,40.4,29.0,30.40,NW,307,0.0,-999.0,65,-99.99,,,0.00,weatherlink.com 1.10,2013-01-06 15:16:00,
2013-01-06 09:31:00,41.3,29.0,30.40,SE,125,0.0,-999.0,62,-99.99,,,0.00,weatherlink.com 1.10,2013-01-06 15:31:00,
2013-01-06 09:46:00,42.5,29.0,30.40,SE,138,0.0,-999.0,60,-99.99,,,0.00,weatherlink.com 1.10,2013-01-06 15:46:00,
2013-01-06 10:01:00,43.5,30.0,30.40,ESE,111,0.0,-999.0,59,-99.99,,,0.00,weatherlink.com 1.10,2013-01-06 16:01:00,
2013-01-06 10:16:00,44.6,30.0,30.41,WSW,243,0.0,-999.0,56,-99.99,,,0.00,weatherlink.com 1.10,2013-01-06 16:16:00,
2013-01-06 10:31:00,45.5,30.0,30.41,ESE,103,0.0,-999.0,56,-99.99,,,0.00,weatherlink.com 1.10,2013-01-06 16:31:00,
2013-01-06 10:46:00,46.5,30.0,30.40,WSW,238,0.0,-999.0,53,-99.99,,,0.00,weatherlink.com 1.10,2013-01-06 16:46:00,
2013-01-06 11:01:00,46.6,30.0,30.41,WNW,286,0.0,-999.0,53,-99.99,,,0.00,weatherlink.com 1.10,2013-01-06 17:01:00,
2013-01-06 11:16:00,47.3,30.0,30.41,East,92,0.0,-999.0,51,-99.99,,,0.00,weatherlink.com 1.10,2013-01-06 17:16:00,
2013-01-06 11:31:00,47.5,30.0,30.41,NW,314,0.0,-999.0,52,-99.99,,,0.00,weatherlink.com 1.10,2013-01-06 17:31:00,
2013-01-06 11:46:00,48.3,30.0,30.40,South,181,0.0,-999.0,50,-99.99,,,0.00,weatherlink.com 1.10,2013-01-06 17:46:00,
2013-01-06 12:01:00,48.7,30.0,30.40,East,100,4.0,-999.0,48,-99.99,,,0.00,weatherlink.com 1.10,2013-01-06 18:01:00,
2013-01-06 12:16:00,49.2,30.0,30.39,South,179,0.0,-999.0,47,-99.99,,,0.00,weatherlink.com 1.10,2013-01-06 18:16:00,
2013-01-06 12:31:00,49.9,29.0,30.38,ENE,71,0.0,-999.0,45,-99.99,,,0.00,weatherlink.com 1.10,2013-01-06 18:31:00,
2013-01-06 12:46:00,50.9,30.0,30.37,North,360,2.0,-999.0,45,-99.99,,,0.00,weatherlink.com 1.10,2013-01-06 18:46:00,
2013-01-06 13:01:00,51.6,30.0,30.36,SSW,206,1.0,-999.0,43,-99.99,,,0.00,weatherlink.com 1.10,2013-01-06 19:01:00,
2013-01-06 13:31:00,52.3,30.0,30.35,SSW,202,4.0,-999.0,43,-99.99,,,0.00,weatherlink.com 1.10,2013-01-06 19:31:00,
2013-01-06 13:47:00,52.9,30.0,30.34,WSW,244,1.0,-999.0,41,-99.99,,,0.00,weatherlink.com 1.10,2013-01-06 19:47:00,
2013-01-06 14:02:00,53.3,30.0,30.34,WNW,292,3.0,-999.0,41,-99.99,,,0.00,weatherlink.com 1.10,2013-01-06 20:02:00,
2013-01-06 14:17:00,54.1,29.0,30.34,NW,319,0.0,-999.0,39,-99.99,,,0.00,weatherlink.com 1.10,2013-01-06 20:17:00,
2013-01-06 14:32:00,54.3,29.0,30.34,ENE,65,0.0,-999.0,38,-99.99,,,0.00,weatherlink.com 1.10,2013-01-06 20:32:00,
2013-01-06 14:47:00,54.5,29.0,30.34,WNW,300,0.0,-999.0,38,-99.99,,,0.00,weatherlink.com 1.10,2013-01-06 20:47:00,
2013-01-06 15:02:00,54.4,29.0,30.34,WNW,294,1.0,-999.0,38,-99.99,,,0.00,weatherlink.com 1.10,2013-01-06 21:02:00,
2013-01-06 15:17:00,54.9,30.0,30.34,WSW,242,0.0,-999.0,38,-99.99,,,0.00,weatherlink.com 1.10,2013-01-06 21:17:00,
2013-01-06 15:32:00,54.6,29.0,30.34,NNE,21,0.0,-999.0,38,-99.99,,,0.00,weatherlink.com 1.10,2013-01-06 21:32:00,
2013-01-06 15:47:00,54.5,29.0,30.34,North,351,0.0,-999.0,38,-99.99,,,0.00,weatherlink.com 1.10,2013-01-06 21:47:00,
2013-01-06 16:02:00,55.1,29.0,30.33,NE,51,0.0,-999.0,37,-99.99,,,0.00,weatherlink.com 1.10,2013-01-06 22:02:00,
2013-01-06 16:17:00,54.4,27.0,30.33,East,96,3.0,-999.0,35,-99.99,,,0.00,weatherlink.com 1.10,2013-01-06 22:17:00,
2013-01-06 16:32:00,53.8,28.0,30.33,NE,43,0.0,-999.0,37,-99.99,,,0.00,weatherlink.com 1.10,2013-01-06 22:32:00,
2013-01-06 16:47:00,53.5,28.0,30.33,ESE,118,2.0,-999.0,38,-99.99,,,0.00,weatherlink.com 1.10,2013-01-06 22:47:00,
2013-01-06 17:02:00,52.8,28.0,30.33,NNE,32,0.0,-999.0,38,-99.99,,,0.00,weatherlink.com 1.10,2013-01-06 23:02:00,
2013-01-06 17:32:00,51.7,28.0,30.32,NE,45,0.0,-999.0,40,-99.99,,,0.00,weatherlink.com 1.10,2013-01-06 23:32:00,
2013-01-06 17:47:00,51.1,28.0,30.33,South,183,0.0,-999.0,41,-99.99,,,0.00,weatherlink.com 1.10,2013-01-06 23:47:00,
2013-01-06 18:02:00,50.4,28.0,30.33,ENE,63,0.0,-999.0,43,-99.99,,,0.00,weatherlink.com 1.10,2013-01-07 00:02:00,
2013-01-06 18:17:00,49.4,29.0,30.32,East,95,0.0,-999.0,45,-99.99,,,0.00,weatherlink.com 1.10,2013-01-07 00:17:00,
2013-01-06 18:32:00,48.2,29.0,30.33,East,96,0.0,-999.0,47,-99.99,,,0.00,weatherlink.com 1.10,2013-01-07 00:32:00,
2013-01-06 18:47:00,48.8,29.0,30.33,East,91,0.0,-999.0,46,-99.99,,,0.00,weatherlink.com 1.10,2013-01-07 00:47:00,
2013-01-06 19:02:00,47.8,28.0,30.33,ESE,121,0.0,-999.0,47,-99.99,,,0.00,weatherlink.com 1.10,2013-01-07 01:02:00,
2013-01-06 19:17:00,45.5,29.0,30.33,ESE,121,0.0,-999.0,53,-99.99,,,0.00,weatherlink.com 1.10,2013-01-07 01:17:00,
2013-01-06 19:32:00,44.5,29.0,30.34,ESE,121,0.0,-999.0,55,-99.99,,,0.00,weatherlink.com 1.10,2013-01-07 01:32:00,
2013-01-06 19:47:00,44.5,29.0,30.34,ESE,121,0.0,-999.0,55,-99.99,,,0.00,weatherlink.com 1.10,2013-01-07 01:47:00,
2013-01-06 20:02:00,43.8,29.0,30.34,ESE,121,0.0,-999.0,57,-99.99,,,0.00,weatherlink.com 1.10,2013-01-07 02:02:00,
2013-01-06 20:17:00,42.9,29.0,30.35,ESE,121,0.0,-999.0,59,-99.99,,,0.00,weatherlink.com 1.10,2013-01-07 02:17:00,
2013-01-06 20:32:00,42.0,30.0,30.35,ESE,121,0.0,-999.0,63,-99.99,,,0.00,weatherlink.com 1.10,2013-01-07 02:32:00,
2013-01-06 20:47:00,41.1,30.0,30.35,ESE,121,0.0,-999.0,65,-99.99,,,0.00,weatherlink.com 1.10,2013-01-07 02:47:00,
2013-01-06 21:02:00,40.2,30.0,30.35,ESE,121,0.0,-999.0,66,-99.99,,,0.00,weatherlink.com 1.10,2013-01-07 03:02:00,
2013-01-06 21:17:00,40.3,30.0,30.36,ESE,121,0.0,-999.0,66,-99.99,,,0.00,weatherlink.com 1.10,2013-01-07 03:17:00,
2013-01-06 21:32:00,40.1,30.0,30.36,ESE,121,0.0,-999.0,67,-99.99,,,0.00,weatherlink.com 1.10,2013-01-07 03:32:00,
2013-01-06 21:47:00,40.0,29.0,30.35,ESE,121,0.0,-999.0,66,-99.99,,,0.00,weatherlink.com 1.10,2013-01-07 03:47:00,
2013-01-06 22:02:00,40.1,29.0,30.35,ESE,121,0.0,-999.0,66,-99.99,,,0.00,weatherlink.com 1.10,2013-01-07 04:02:00,
2013-01-06 22:17:00,39.4,30.0,30.36,ESE,121,0.0,-999.0,68,-99.99,,,0.00,weatherlink.com 1.10,2013-01-07 04:17:00,
2013-01-06 22:32:00,38.5,29.0,30.35,ESE,121,0.0,-999.0,70,-99.99,,,0.00,weatherlink.com 1.10,2013-01-07 04:32:00,
2013-01-06 22:47:00,37.9,29.0,30.34,ESE,121,0.0,-999.0,71,-99.99,,,0.00,weatherlink.com 1.10,2013-01-07 04:47:00,
2013-01-06 23:02:00,37.3,29.0,30.35,ESE,121,0.0,-999.0,73,-99.99,,,0.00,weatherlink.com 1.10,2013-01-07 05:02:00,
2013-01-06 23:17:00,36.8,29.0,30.34,ESE,121,0.0,-999.0,74,-99.99,,,0.00,weatherlink.com 1.10,2013-01-07 05:17:00,
2013-01-06 23:32:00,36.3,29.0,30.34,ESE,121,0.0,-999.0,75,-99.99,,,0.00,weatherlink.com 1.10,2013-01-07 05:32:00,